• en Suisse
  • Liste des pays
  • À 7 jours
  • Température de l'eau
  • Carte satellitaire
  • Carte météo
  • Widgets météo
  • user-avatar
    Se connecter

    Météo par heure à Isansupovo

    Ce jour, 18 Septembre, Mardi

    Heure Température Précipitation Vent Pression Humidité
    00:00 +14°C° 0 mm 2 m/s 746 mmHg 81%
    01:00 +14°C° 0 mm 2 m/s 746 mmHg 84%
    02:00 +13°C° 0 mm 2 m/s 746 mmHg 86%
    03:00 +12°C° 0 mm 3 m/s 746 mmHg 88%
    04:00 +13°C° 0 mm 2 m/s 745 mmHg 93%
    05:00 +12°C° 0 mm 3 m/s 745 mmHg 91%
    06:00 +12°C° 0 mm 3 m/s 745 mmHg 90%
    07:00 +12°C° 0 mm 3 m/s 745 mmHg 89%
    08:00 +13°C° 0 mm 4 m/s 744 mmHg 85%
    09:00 +14°C° 0 mm 4 m/s 744 mmHg 81%
    10:00 +14°C° 0 mm 4 m/s 744 mmHg 76%
    11:00 +15°C° 0 mm 4 m/s 743 mmHg 72%
    12:00 +17°C° 0 mm 4 m/s 743 mmHg 68%
    13:00 +18°C° 0 mm 3 m/s 743 mmHg 64%
    14:00 +19°C° 0 mm 3 m/s 742 mmHg 63%
    15:00 +19°C° 0 mm 2 m/s 742 mmHg 62%
    16:00 +20°C° 0 mm 1 m/s 742 mmHg 65%
    17:00 +19°C° 0 mm 1 m/s 741 mmHg 68%
    18:00 +18°C° 0 mm 1 m/s 741 mmHg 71%
    19:00 +16°C° 0 mm 2 m/s 741 mmHg 74%
    20:00 +15°C° 0.1 mm 2 m/s 740 mmHg 79%
    21:00 +14°C° 0.1 mm 2 m/s 740 mmHg 85%
    22:00 +14°C° 0.1 mm 2 m/s 740 mmHg 90%
    23:00 +12°C° 0.5 mm 3 m/s 740 mmHg 92%

    Demain, 19 Septembre, Mercredi

    Heure Température Précipitation Vent Pression Humidité
    00:00 +12°C° 0.5 mm 3 m/s 739 mmHg 93%
    01:00 +12°C° 0.5 mm 4 m/s 739 mmHg 95%
    02:00 +11°C° 0.6 mm 4 m/s 738 mmHg 93%
    03:00 +11°C° 0.6 mm 4 m/s 738 mmHg 91%
    04:00 +10°C° 0.6 mm 5 m/s 737 mmHg 90%
    05:00 +9°C° 0.6 mm 5 m/s 737 mmHg 90%
    06:00 +9°C° 0.6 mm 5 m/s 737 mmHg 90%
    07:00 +8°C° 0.6 mm 5 m/s 737 mmHg 90%
    08:00 +8°C° 0.6 mm 5 m/s 737 mmHg 90%
    09:00 +9°C° 0.6 mm 5 m/s 736 mmHg 89%
    10:00 +9°C° 0.6 mm 6 m/s 736 mmHg 89%
    11:00 +9°C° 0.3 mm 6 m/s 737 mmHg 86%
    12:00 +10°C° 0.3 mm 6 m/s 737 mmHg 83%
    13:00 +10°C° 0.3 mm 7 m/s 737 mmHg 81%
    14:00 +10°C° 0.1 mm 7 m/s 737 mmHg 81%
    15:00 +10°C° 0.1 mm 7 m/s 737 mmHg 82%
    16:00 +10°C° 0.1 mm 7 m/s 737 mmHg 82%
    17:00 +9°C° 0.2 mm 6 m/s 738 mmHg 84%
    18:00 +9°C° 0.2 mm 6 m/s 738 mmHg 86%
    19:00 +9°C° 0.2 mm 6 m/s 738 mmHg 88%
    20:00 +9°C° 0.1 mm 6 m/s 738 mmHg 88%
    21:00 +9°C° 0.1 mm 6 m/s 739 mmHg 88%
    22:00 +8°C° 0.1 mm 6 m/s 739 mmHg 89%
    23:00 +8°C° 0.3 mm 6 m/s 739 mmHg 88%

    Après-demain, 20 Septembre, Jeudi

    Heure Température Précipitation Vent Pression Humidité
    00:00 +8°C° 0.3 mm 6 m/s 739 mmHg 88%
    01:00 +8°C° 0.3 mm 7 m/s 739 mmHg 88%
    02:00 +8°C° 0.1 mm 7 m/s 740 mmHg 87%
    03:00 +7°C° 0.1 mm 6 m/s 740 mmHg 87%
    04:00 +7°C° 0.1 mm 6 m/s 740 mmHg 87%
    05:00 +7°C° 0 mm 6 m/s 741 mmHg 88%
    06:00 +5°C° 0 mm 6 m/s 741 mmHg 88%
    07:00 +5°C° 0 mm 6 m/s 741 mmHg 89%
    08:00 +5°C° 0 mm 6 m/s 742 mmHg 86%
    09:00 +7°C° 0 mm 6 m/s 742 mmHg 83%
    10:00 +8°C° 0 mm 6 m/s 742 mmHg 79%
    11:00 +9°C° 0 mm 6 m/s 743 mmHg 73%
    12:00 +10°C° 0 mm 6 m/s 743 mmHg 68%
    13:00 +13°C° 0 mm 6 m/s 743 mmHg 62%
    14:00 +13°C° 0 mm 6 m/s 743 mmHg 60%
    15:00 +13°C° 0 mm 6 m/s 743 mmHg 59%
    16:00 +14°C° 0 mm 6 m/s 743 mmHg 57%
    17:00 +12°C° 0 mm 5 m/s 744 mmHg 62%
    18:00 +11°C° 0 mm 4 m/s 744 mmHg 67%
    19:00 +9°C° 0 mm 3 m/s 744 mmHg 73%
    20:00 +9°C° 0 mm 3 m/s 744 mmHg 75%
    21:00 +8°C° 0 mm 3 m/s 744 mmHg 76%
    22:00 +8°C° 0 mm 3 m/s 744 mmHg 78%
    23:00 +7°C° 0 mm 3 m/s 744 mmHg 80%

    21 Septembre, Vendredi

    Heure Température Précipitation Vent Pression Humidité
    00:00 +7°C° 0 mm 3 m/s 744 mmHg 81%
    01:00 +7°C° 0 mm 3 m/s 744 mmHg 83%
    02:00 +5°C° 0 mm 3 m/s 745 mmHg 85%
    03:00 +5°C° 0 mm 3 m/s 745 mmHg 86%
    04:00 +5°C° 0 mm 3 m/s 745 mmHg 88%
    05:00 +5°C° 0 mm 3 m/s 745 mmHg 88%
    06:00 +5°C° 0 mm 3 m/s 745 mmHg 89%
    07:00 +5°C° 0 mm 3 m/s 746 mmHg 89%
    08:00 +7°C° 0 mm 3 m/s 746 mmHg 82%
    09:00 +8°C° 0 mm 4 m/s 746 mmHg 75%
    10:00 +10°C° 0 mm 5 m/s 747 mmHg 68%
    11:00 +12°C° 0 mm 5 m/s 747 mmHg 64%
    12:00 +13°C° 0 mm 5 m/s 747 mmHg 60%
    13:00 +14°C° 0 mm 5 m/s 747 mmHg 57%
    14:00 +14°C° 0 mm 5 m/s 747 mmHg 57%
    15:00 +14°C° 0 mm 5 m/s 748 mmHg 57%
    16:00 +14°C° 0 mm 5 m/s 748 mmHg 57%
    17:00 +13°C° 0 mm 4 m/s 748 mmHg 63%
    18:00 +12°C° 0 mm 3 m/s 749 mmHg 68%
    19:00 +10°C° 0 mm 3 m/s 749 mmHg 74%
    20:00 +10°C° 0 mm 3 m/s 750 mmHg 75%
    21:00 +9°C° 0 mm 3 m/s 750 mmHg 77%
    22:00 +8°C° 0 mm 3 m/s 750 mmHg 79%
    23:00 +8°C° 0 mm 3 m/s 751 mmHg 80%

    22 Septembre, Samedi

    Heure Température Précipitation Vent Pression Humidité
    00:00 +8°C° 0 mm 2 m/s 751 mmHg 81%
    01:00 +7°C° 0 mm 2 m/s 751 mmHg 83%
    02:00 +7°C° 0 mm 2 m/s 751 mmHg 83%
    03:00 +7°C° 0 mm 2 m/s 751 mmHg 84%
    04:00 +7°C° 0 mm 2 m/s 752 mmHg 85%
    05:00 +7°C° 0 mm 2 m/s 752 mmHg 86%
    06:00 +7°C° 0 mm 2 m/s 752 mmHg 88%
    07:00 +7°C° 0 mm 2 m/s 753 mmHg 90%
    08:00 +9°C° 0 mm 2 m/s 753 mmHg 87%
    09:00 +12°C° 0 mm 2 m/s 753 mmHg 84%
    10:00 +14°C° 0 mm 2 m/s 753 mmHg 81%
    11:00 +14°C° 0 mm 2 m/s 753 mmHg 82%
    12:00 +14°C° 0 mm 3 m/s 753 mmHg 83%
    13:00 +14°C° 0 mm 3 m/s 753 mmHg 84%
    14:00 +16°C° 0 mm 3 m/s 753 mmHg 84%
    15:00 +17°C° 0 mm 3 m/s 753 mmHg 83%
    16:00 +17°C° 0 mm 3 m/s 753 mmHg 83%
    17:00 +17°C° 0 mm 2 m/s 753 mmHg 86%
    18:00 +16°C° 0 mm 2 m/s 753 mmHg 89%
    19:00 +15°C° 0 mm 1 m/s 753 mmHg 92%
    20:00 +15°C° 0 mm 1 m/s 753 mmHg 93%
    21:00 +15°C° 0 mm 1 m/s 753 mmHg 93%
    22:00 +15°C° 0 mm 1 m/s 753 mmHg 94%
    23:00 +15°C° 0 mm 2 m/s 753 mmHg 94%

    23 Septembre, Dimanche

    Heure Température Précipitation Vent Pression Humidité
    00:00 +15°C° 0 mm 2 m/s 753 mmHg 94%
    01:00 +14°C° 0 mm 2 m/s 753 mmHg 95%
    02:00 +14°C° 0 mm 2 m/s 753 mmHg 94%
    03:00 +14°C° 0 mm 2 m/s 753 mmHg 94%
    04:00 +14°C° 0 mm 2 m/s 753 mmHg 94%
    05:00 +14°C° 0.1 mm 2 m/s 753 mmHg 94%
    06:00 +14°C° 0.1 mm 2 m/s 753 mmHg 94%
    07:00 +14°C° 0.1 mm 2 m/s 753 mmHg 94%
    08:00 +15°C° 0 mm 2 m/s 753 mmHg 90%
    09:00 +16°C° 0 mm 2 m/s 753 mmHg 86%
    10:00 +17°C° 0 mm 2 m/s 753 mmHg 82%
    11:00 +18°C° 0 mm 2 m/s 753 mmHg 78%
    12:00 +19°C° 0 mm 2 m/s 753 mmHg 73%
    13:00 +20°C° 0 mm 2 m/s 753 mmHg 68%
    14:00 +21°C° 0 mm 2 m/s 753 mmHg 67%
    15:00 +21°C° 0 mm 2 m/s 752 mmHg 66%
    16:00 +21°C° 0 mm 2 m/s 752 mmHg 65%
    17:00 +20°C° 0 mm 2 m/s 752 mmHg 70%
    18:00 +18°C° 0 mm 2 m/s 752 mmHg 76%
    19:00 +18°C° 0 mm 1 m/s 752 mmHg 81%
    20:00 +16°C° 0 mm 1 m/s 752 mmHg 83%
    21:00 +16°C° 0 mm 1 m/s 752 mmHg 85%
    22:00 +15°C° 0 mm 1 m/s 752 mmHg 87%
    23:00 +15°C° 0 mm 1 m/s 752 mmHg 87%
    Voir plus